Alamosa, CO

2:59 AM MST on November 24, 2017 (GMT -0700)
San Luis Valley Regional / Bergman Field

Weather History for KALS - December, 2013

Change the Weather History Date:

Monday, December 23, 2013

  Actual Average Record
Temperature  
Mean Temperature 8 °F 16 °F  
Max Temperature 28 °F 34 °F 58 °F (1955)
Min Temperature -12 °F -1 °F -29 °F (1990)
Degree Days  
Heating Degree Days 57 49  
Month to date heating degree days 1313 1070  
Since 1 July heating degree days 3413 3245  
Cooling Degree Days 0 0  
Month to date cooling degree days 0 0  
Year to date cooling degree days 113 51  
Moisture  
Dew Point -3 °F    
Average Humidity 67    
Maximum Humidity 87    
Minimum Humidity 46    
Precipitation  
Precipitation 0.00 in 0.01 in 0.28 in (1965)
Month to date precipitation 0.04 0.27  
Year to date precipitation 10.06 7.23  
Snow  
Snow 0.00 in 0.20 in 5.00 in (1965)
Month to date snowfall 1.0 3.5  
Since 1 July snowfall 22.6 9.3  
Snow Depth 2.00 in    
Sea Level Pressure  
Sea Level Pressure 30.67 in    
Wind  
Wind Speed 4 mph (WSW)    
Max Wind Speed 10 mph    
Max Gust Speed 11 mph    
Visibility 10 miles    
Events      
T = Trace of Precipitation, MM = Missing Value Source: NWS Daily Summary

Daily Weather History Graph

Daily Weather History Graph

Search for Another Location

Airport or City:

Trip Planner

Search our weather history database for the weather conditions in past years. The results will help you decide how hot, cold, wet, or windy it might be!

Date:

Astronomy

Dec. 23, 2013 Rise Set
Actual Time 7:15 AM MST 4:50 PM MST
Civil Twilight 6:46 AM MST 5:19 PM MST
Nautical Twilight 6:13 AM MST 5:52 PM MST
Astronomical Twilight 5:41 AM MST 6:24 PM MST
Moon 10:55 PM MST (12/23) 10:48 AM MST (12/23)
Length of Visible Light 10h 33m
Length of Day
9h 34m
Waning Gibbous, 67% of the Moon is Illuminated
Dec 23
Waning Gibbous
Dec 25
Last Quarter
Jan 1
New
Jan 7
First Quarter
Jan 15
Full

Hourly Weather History & Observations

Time (MST) Temp. Windchill Dew Point Humidity Pressure Visibility Wind Dir Wind Speed Gust Speed Precip Events Conditions
12:52 AM -5.1 °F -17.6 °F -9.9 °F 80% 30.49 in 10.0 mi WSW 5.8 mph - N/A   Clear
1:52 AM -8.0 °F -19.2 °F -11.9 °F 83% 30.51 in 10.0 mi SSE 4.6 mph - N/A   Clear
2:52 AM -7.1 °F -21.4 °F -11.9 °F 79% 30.52 in 10.0 mi SW 6.9 mph - N/A   Clear
3:52 AM -11.0 °F -22.8 °F -17.0 °F 75% 30.57 in 10.0 mi East 4.6 mph - N/A   Clear
4:52 AM -9.0 °F - -13.0 °F 83% 30.60 in 10.0 mi Calm Calm - N/A   Clear
5:52 AM -11.0 °F -26.2 °F -16.1 °F 78% 30.65 in 10.0 mi SW 6.9 mph - N/A   Clear
6:52 AM -9.0 °F -25.2 °F -13.0 °F 83% 30.68 in 10.0 mi SSW 8.1 mph - N/A   Clear
7:52 AM -5.1 °F -13.6 °F -11.0 °F 76% 30.72 in 10.0 mi Variable 3.5 mph - N/A   Clear
8:52 AM 6.1 °F -2.8 °F 1.9 °F 83% 30.71 in 10.0 mi SW 4.6 mph - N/A   Clear
9:52 AM 8.1 °F - 1.0 °F 73% 30.73 in 10.0 mi Calm Calm - N/A   Clear
10:52 AM 15.1 °F - 3.9 °F 61% 30.69 in 10.0 mi Calm Calm - N/A   Clear
11:52 AM 19.0 °F - 6.1 °F 57% 30.68 in 10.0 mi Calm Calm - N/A   Clear
12:52 PM 21.9 °F 17.2 °F 8.1 °F 55% 30.64 in 10.0 mi SW 3.5 mph - N/A   Clear
1:52 PM 25.0 °F - 8.1 °F 49% 30.63 in 10.0 mi Calm Calm - N/A   Clear
2:52 PM 27.0 °F - 9.0 °F 47% 30.61 in 10.0 mi Calm Calm - N/A   Clear
3:52 PM 24.1 °F - 10.9 °F 57% 30.66 in 10.0 mi Calm Calm - N/A   Clear
4:52 PM 18.0 °F 11.1 °F 8.1 °F 65% 30.69 in 10.0 mi NNW 4.6 mph - N/A   Clear
5:52 PM 10.9 °F 0.2 °F 3.0 °F 70% 30.76 in 10.0 mi North 6.9 mph - N/A   Clear
6:52 PM 3.9 °F -3.4 °F -0.9 °F 80% 30.81 in 10.0 mi West 3.5 mph - N/A   Clear
7:52 PM 1.0 °F -8.7 °F -4.0 °F 79% 30.84 in 10.0 mi West 4.6 mph - N/A   Clear
8:52 PM -0.9 °F -12.7 °F -6.0 °F 79% 30.76 in 10.0 mi West 5.8 mph - N/A   Clear
9:52 PM 1.0 °F -8.7 °F -2.0 °F 87% 30.74 in 10.0 mi WNW 4.6 mph - N/A   Clear
10:52 PM -2.0 °F -15.4 °F -6.0 °F 83% 30.71 in 10.0 mi SW 6.9 mph - N/A   Clear
11:52 PM -2.9 °F -11.2 °F -8.0 °F 79% 30.67 in 10.0 mi SW 3.5 mph - N/A   Clear